Location: Peach Mountain Observatory
(42.3967°N, 83.9367°W)
Time: 16:04:48
(UTC-05:00)

Transit 4A - Pass Details

Date: 22 January 2020
Orbit: 872 x 973 km, 66.8° (Epoch: 22 February)

Event Time Altitude Azimuth Distance (km) Brightness Sun altitude
Rises 18:18:51 0° 311° (NW) 3,467 11.3 -8.1°
Reaches altitude 10° 18:22:33 10° 287° (WNW) 2,528 11.1 -8.7°
Maximum altitude 18:25:27 14° 257° (WSW) 2,245 11.4 -9.2°
Drops below altitude 10° 18:28:22 10° 227° (SW) 2,536 11.3 -9.7°
Sets 18:32:06 0° 203° (SSW) 3,485 11.5 -10.4°
